Time,TemperatureF,DewpointF,PressureIn,WindDirection,WindDirectionDegrees,WindSpeedMPH,WindSpeedGustMPH,Humidity,HourlyPrecipIn,Conditions,Clouds,dailyrainin,SolarRadiationWatts/m^2,SoftwareType,DateUTC
2013-03-25 00:00:00,15.9,4.1,30.48,ESE,103,13.0,13.0,59,0.00,,,0.00,32767.00,ALWS 1.0-beta,2013-03-25 06:00:00,
2013-03-25 00:05:00,15.8,4.0,30.49,East,98,12.0,14.0,59,0.00,,,0.00,32767.00,ALWS 1.0-beta,2013-03-25 06:05:00,
2013-03-25 00:10:00,15.7,3.9,30.49,East,96,11.0,16.0,59,0.00,,,0.00,32767.00,ALWS 1.0-beta,2013-03-25 06:10:00,
2013-03-25 00:15:00,15.6,3.8,30.48,East,98,14.0,15.0,59,0.00,,,0.00,32767.00,ALWS 1.0-beta,2013-03-25 06:15:00,
2013-03-25 00:20:00,15.6,3.8,30.48,ENE,75,14.0,17.0,59,0.00,,,0.00,32767.00,ALWS 1.0-beta,2013-03-25 06:20:00,
2013-03-25 00:25:00,15.3,3.5,30.48,East,86,17.0,18.0,59,0.00,,,0.00,32767.00,ALWS 1.0-beta,2013-03-25 06:25:00,
2013-03-25 00:30:00,15.3,3.5,30.49,East,81,10.0,17.0,59,0.00,,,0.00,32767.00,ALWS 1.0-beta,2013-03-25 06:30:00,
2013-03-25 00:35:00,15.2,3.5,30.49,ESE,107,13.0,15.0,59,0.00,,,0.00,32767.00,ALWS 1.0-beta,2013-03-25 06:35:00,
2013-03-25 00:40:00,14.9,3.5,30.49,East,86,13.0,15.0,60,0.00,,,0.00,32767.00,ALWS 1.0-beta,2013-03-25 06:40:00,
2013-03-25 00:45:00,14.9,3.5,30.49,East,99,12.0,14.0,60,0.00,,,0.00,32767.00,ALWS 1.0-beta,2013-03-25 06:45:00,
2013-03-25 00:50:00,14.9,3.5,30.49,East,94,11.0,15.0,60,0.00,,,0.00,32767.00,ALWS 1.0-beta,2013-03-25 06:50:00,
2013-03-25 00:55:00,14.8,3.4,30.49,East,98,17.0,18.0,60,0.00,,,0.00,32767.00,ALWS 1.0-beta,2013-03-25 06:55:00,
2013-03-25 01:00:00,14.6,2.9,30.49,East,94,14.0,15.0,59,0.00,,,0.00,32767.00,ALWS 1.0-beta,2013-03-25 07:00:00,
2013-03-25 01:05:00,14.6,3.2,30.49,East,100,11.0,16.0,60,0.00,,,0.00,32767.00,ALWS 1.0-beta,2013-03-25 07:05:00,
2013-03-25 01:10:00,14.4,3.1,30.49,ESE,103,12.0,16.0,60,0.00,,,0.00,32767.00,ALWS 1.0-beta,2013-03-25 07:10:00,
2013-03-25 01:15:00,14.0,2.7,30.49,ESE,104,14.0,17.0,60,0.00,,,0.00,32767.00,ALWS 1.0-beta,2013-03-25 07:15:00,
2013-03-25 01:20:00,14.0,2.7,30.49,ESE,107,15.0,20.0,60,0.00,,,0.00,32767.00,ALWS 1.0-beta,2013-03-25 07:20:00,
2013-03-25 01:25:00,13.9,2.6,30.49,East,101,12.0,16.0,60,0.00,,,0.00,32767.00,ALWS 1.0-beta,2013-03-25 07:25:00,
2013-03-25 01:30:00,13.8,2.5,30.49,ESE,108,12.0,17.0,60,0.00,,,0.00,32767.00,ALWS 1.0-beta,2013-03-25 07:30:00,
2013-03-25 01:35:00,13.6,2.7,30.49,ESE,109,7.0,11.0,61,0.00,,,0.00,32767.00,ALWS 1.0-beta,2013-03-25 07:35:00,
2013-03-25 01:40:00,13.4,2.5,30.49,ESE,103,11.0,11.0,61,0.00,,,0.00,32767.00,ALWS 1.0-beta,2013-03-25 07:40:00,
2013-03-25 01:45:00,13.2,2.3,30.49,East,101,18.0,18.0,61,0.00,,,0.00,32767.00,ALWS 1.0-beta,2013-03-25 07:45:00,
2013-03-25 01:50:00,13.2,2.3,30.49,ESE,111,13.0,15.0,61,0.00,,,0.00,32767.00,ALWS 1.0-beta,2013-03-25 07:50:00,
2013-03-25 01:55:00,13.1,2.2,30.49,ESE,112,15.0,16.0,61,0.00,,,0.00,32767.00,ALWS 1.0-beta,2013-03-25 07:55:00,
2013-03-25 02:00:00,13.0,2.1,30.49,ESE,105,13.0,17.0,61,0.00,,,0.00,32767.00,ALWS 1.0-beta,2013-03-25 08:00:00,
2013-03-25 02:05:00,13.0,2.1,30.49,East,90,9.0,18.0,61,0.00,,,0.00,32767.00,ALWS 1.0-beta,2013-03-25 08:05:00,
2013-03-25 02:10:00,12.8,1.5,30.49,East,101,9.0,14.0,60,0.00,,,0.00,32767.00,ALWS 1.0-beta,2013-03-25 08:10:00,
2013-03-25 02:15:00,12.7,1.5,30.49,East,95,14.0,14.0,60,0.00,,,0.00,32767.00,ALWS 1.0-beta,2013-03-25 08:15:00,
2013-03-25 02:20:00,12.6,1.4,30.49,East,84,7.0,16.0,60,0.00,,,0.00,32767.00,ALWS 1.0-beta,2013-03-25 08:20:00,
2013-03-25 02:25:00,12.5,1.3,30.49,ESE,102,14.0,16.0,60,0.00,,,0.00,32767.00,ALWS 1.0-beta,2013-03-25 08:25:00,
2013-03-25 02:30:00,12.3,1.1,30.49,ESE,102,13.0,16.0,60,0.00,,,0.00,32767.00,ALWS 1.0-beta,2013-03-25 08:30:00,
2013-03-25 02:35:00,12.2,1.0,30.49,East,90,15.0,17.0,60,0.00,,,0.00,32767.00,ALWS 1.0-beta,2013-03-25 08:35:00,
2013-03-25 02:40:00,12.3,1.1,30.49,East,96,13.0,19.0,60,0.00,,,0.00,32767.00,ALWS 1.0-beta,2013-03-25 08:40:00,
2013-03-25 02:45:00,12.3,0.7,30.49,East,91,12.0,17.0,59,0.00,,,0.00,32767.00,ALWS 1.0-beta,2013-03-25 08:45:00,
2013-03-25 02:50:00,12.3,0.7,30.49,East,94,12.0,17.0,59,0.00,,,0.00,32767.00,ALWS 1.0-beta,2013-03-25 08:50:00,
2013-03-25 02:55:00,12.5,0.9,30.48,East,101,9.0,16.0,59,0.00,,,0.00,32767.00,ALWS 1.0-beta,2013-03-25 08:55:00,
2013-03-25 02:59:00,12.6,0.6,30.48,East,98,9.0,18.0,58,0.00,,,0.00,32767.00,ALWS 1.0-beta,2013-03-25 08:59:00,
2013-03-25 03:05:00,12.6,0.6,30.48,East,91,13.0,16.0,58,0.00,,,0.00,32767.00,ALWS 1.0-beta,2013-03-25 09:05:00,
2013-03-25 03:09:00,12.5,0.5,30.48,ESE,103,11.0,17.0,58,0.00,,,0.00,32767.00,ALWS 1.0-beta,2013-03-25 09:09:00,
2013-03-25 03:14:00,12.4,0.4,30.48,ESE,106,14.0,19.0,58,0.00,,,0.00,32767.00,ALWS 1.0-beta,2013-03-25 09:14:00,
2013-03-25 03:19:00,12.3,0.3,30.48,ESE,107,13.0,18.0,58,0.00,,,0.00,32767.00,ALWS 1.0-beta,2013-03-25 09:19:00,
2013-03-25 03:24:00,11.8,0.2,30.48,ESE,105,11.0,17.0,59,0.00,,,0.00,32767.00,ALWS 1.0-beta,2013-03-25 09:24:00,
2013-03-25 03:29:00,11.7,0.5,30.49,East,101,9.0,13.0,60,0.00,,,0.00,32767.00,ALWS 1.0-beta,2013-03-25 09:29:00,
2013-03-25 03:34:00,11.9,0.7,30.49,East,94,14.0,14.0,60,0.00,,,0.00,32767.00,ALWS 1.0-beta,2013-03-25 09:34:00,
2013-03-25 03:39:00,11.7,0.5,30.49,East,101,11.0,14.0,60,0.00,,,0.00,32767.00,ALWS 1.0-beta,2013-03-25 09:39:00,
2013-03-25 03:44:00,11.5,0.3,30.49,East,88,11.0,17.0,60,0.00,,,0.00,32767.00,ALWS 1.0-beta,2013-03-25 09:44:00,
2013-03-25 03:49:00,11.5,0.0,30.48,ESE,102,11.0,12.0,59,0.00,,,0.00,32767.00,ALWS 1.0-beta,2013-03-25 09:49:00,
2013-03-25 03:54:00,11.4,-0.1,30.49,East,84,17.0,17.0,59,0.00,,,0.00,32767.00,ALWS 1.0-beta,2013-03-25 09:54:00,
2013-03-25 03:59:00,11.5,-0.4,30.49,East,98,10.0,12.0,58,0.00,,,0.00,32767.00,ALWS 1.0-beta,2013-03-25 09:59:00,
2013-03-25 04:04:00,11.3,-0.2,30.49,East,101,9.0,11.0,59,0.00,,,0.00,32767.00,ALWS 1.0-beta,2013-03-25 10:04:00,
2013-03-25 04:09:00,11.3,-0.2,30.49,East,97,5.0,9.0,59,0.00,,,0.00,32767.00,ALWS 1.0-beta,2013-03-25 10:09:00,
2013-03-25 04:14:00,11.7,-0.2,30.49,East,92,7.0,12.0,58,0.00,,,0.00,32767.00,ALWS 1.0-beta,2013-03-25 10:14:00,
2013-03-25 04:19:00,11.9,0.0,30.49,ESE,106,11.0,13.0,58,0.00,,,0.00,32767.00,ALWS 1.0-beta,2013-03-25 10:19:00,
2013-03-25 04:24:00,11.7,-0.2,30.49,ENE,73,12.0,14.0,58,0.00,,,0.00,32767.00,ALWS 1.0-beta,2013-03-25 10:24:00,
2013-03-25 04:29:00,11.5,-0.4,30.49,East,91,7.0,10.0,58,0.00,,,0.00,32767.00,ALWS 1.0-beta,2013-03-25 10:29:00,
2013-03-25 04:34:00,11.4,-0.9,30.49,ESE,102,13.0,13.0,57,0.00,,,0.00,32767.00,ALWS 1.0-beta,2013-03-25 10:34:00,
2013-03-25 04:39:00,11.5,-0.8,30.49,ENE,78,10.0,14.0,57,0.00,,,0.00,32767.00,ALWS 1.0-beta,2013-03-25 10:39:00,
2013-03-25 04:44:00,11.7,-0.6,30.49,East,81,8.0,11.0,57,0.00,,,0.00,32767.00,ALWS 1.0-beta,2013-03-25 10:44:00,
2013-03-25 04:49:00,11.8,-0.9,30.48,ESE,102,14.0,14.0,56,0.00,,,0.00,32767.00,ALWS 1.0-beta,2013-03-25 10:49:00,
2013-03-25 04:54:00,11.6,-1.4,30.49,East,85,7.0,10.0,55,0.00,,,0.00,32767.00,ALWS 1.0-beta,2013-03-25 10:54:00,
2013-03-25 04:59:00,11.3,-1.0,30.49,East,87,11.0,11.0,57,0.00,,,0.00,32767.00,ALWS 1.0-beta,2013-03-25 10:59:00,
2013-03-25 05:04:00,11.1,-1.5,30.49,East,98,12.0,16.0,56,0.00,,,0.00,32767.00,ALWS 1.0-beta,2013-03-25 11:04:00,
2013-03-25 05:09:00,11.2,-1.0,30.49,East,94,12.0,12.0,57,0.00,,,0.00,32767.00,ALWS 1.0-beta,2013-03-25 11:09:00,
2013-03-25 05:14:00,11.0,-1.6,30.49,ESE,107,17.0,17.0,56,0.00,,,0.00,32767.00,ALWS 1.0-beta,2013-03-25 11:14:00,
2013-03-25 05:19:00,10.8,-1.8,30.49,East,86,14.0,16.0,56,0.00,,,0.00,32767.00,ALWS 1.0-beta,2013-03-25 11:19:00,
2013-03-25 05:24:00,10.4,-1.8,30.49,East,90,12.0,15.0,57,0.00,,,0.00,32767.00,ALWS 1.0-beta,2013-03-25 11:24:00,
2013-03-25 05:29:00,10.4,-1.8,30.49,East,101,12.0,12.0,57,0.00,,,0.00,32767.00,ALWS 1.0-beta,2013-03-25 11:29:00,
2013-03-25 05:34:00,10.3,-1.9,30.49,ESE,103,11.0,12.0,57,0.00,,,0.00,32767.00,ALWS 1.0-beta,2013-03-25 11:34:00,
2013-03-25 05:39:00,10.3,-1.9,30.49,East,90,14.0,14.0,57,0.00,,,0.00,32767.00,ALWS 1.0-beta,2013-03-25 11:39:00,
2013-03-25 05:44:00,10.3,-1.9,30.49,ESE,113,10.0,15.0,57,0.00,,,0.00,32767.00,ALWS 1.0-beta,2013-03-25 11:44:00,
2013-03-25 05:49:00,10.5,-1.7,30.48,East,98,14.0,14.0,57,0.00,,,0.00,32767.00,ALWS 1.0-beta,2013-03-25 11:49:00,
2013-03-25 05:54:00,10.8,-1.8,30.48,ESE,107,12.0,12.0,56,0.00,,,0.00,32767.00,ALWS 1.0-beta,2013-03-25 11:54:00,
2013-03-25 05:59:00,10.8,-1.8,30.48,East,93,16.0,16.0,56,0.00,,,0.00,32767.00,ALWS 1.0-beta,2013-03-25 11:59:00,
2013-03-25 06:04:00,10.7,-1.9,30.48,East,80,15.0,15.0,56,0.00,,,0.00,32767.00,ALWS 1.0-beta,2013-03-25 12:04:00,
2013-03-25 06:09:00,10.6,-2.0,30.49,East,91,20.0,21.0,56,0.00,,,0.00,32767.00,ALWS 1.0-beta,2013-03-25 12:09:00,
2013-03-25 06:14:00,10.4,-1.8,30.49,East,94,12.0,20.0,57,0.00,,,0.00,32767.00,ALWS 1.0-beta,2013-03-25 12:14:00,
2013-03-25 06:19:00,10.1,-1.7,30.49,ESE,103,9.0,19.0,58,0.00,,,0.00,32767.00,ALWS 1.0-beta,2013-03-25 12:19:00,
2013-03-25 06:24:00,10.3,-1.5,30.49,ESE,109,16.0,18.0,58,0.00,,,0.00,32767.00,ALWS 1.0-beta,2013-03-25 12:24:00,
2013-03-25 06:29:00,10.3,-1.5,30.49,ESE,118,11.0,18.0,58,0.00,,,0.00,32767.00,ALWS 1.0-beta,2013-03-25 12:29:00,
2013-03-25 06:34:00,10.3,-1.5,30.49,ESE,105,11.0,15.0,58,0.00,,,0.00,32767.00,ALWS 1.0-beta,2013-03-25 12:34:00,
2013-03-25 06:39:00,10.3,-1.5,30.49,ESE,109,12.0,18.0,58,0.00,,,0.00,32767.00,ALWS 1.0-beta,2013-03-25 12:39:00,
2013-03-25 06:44:00,10.3,-1.9,30.49,ESE,103,15.0,17.0,57,0.00,,,0.00,32767.00,ALWS 1.0-beta,2013-03-25 12:44:00,
2013-03-25 06:49:00,10.4,-1.8,30.49,East,98,12.0,17.0,57,0.00,,,0.00,32767.00,ALWS 1.0-beta,2013-03-25 12:49:00,
2013-03-25 06:54:00,10.4,-2.2,30.49,ESE,114,15.0,21.0,56,0.00,,,0.00,32767.00,ALWS 1.0-beta,2013-03-25 12:54:00,
2013-03-25 06:59:00,10.4,-1.8,30.49,ESE,105,12.0,17.0,57,0.00,,,0.00,32767.00,ALWS 1.0-beta,2013-03-25 12:59:00,
2013-03-25 07:04:00,10.4,-1.8,30.49,ESE,121,9.0,14.0,57,0.00,,,0.00,32767.00,ALWS 1.0-beta,2013-03-25 13:04:00,
2013-03-25 07:09:00,10.1,-1.7,30.49,East,101,10.0,15.0,58,0.00,,,0.00,32767.00,ALWS 1.0-beta,2013-03-25 13:09:00,
2013-03-25 07:14:00,10.1,-2.1,30.49,ESE,108,15.0,19.0,57,0.00,,,0.00,32767.00,ALWS 1.0-beta,2013-03-25 13:14:00,
2013-03-25 07:19:00,10.5,-2.1,30.49,East,91,13.0,21.0,56,0.00,,,0.00,32767.00,ALWS 1.0-beta,2013-03-25 13:19:00,
2013-03-25 07:24:00,10.6,-2.0,30.50,ESE,110,12.0,18.0,56,0.00,,,0.00,32767.00,ALWS 1.0-beta,2013-03-25 13:24:00,
2013-03-25 07:29:00,10.8,-2.2,30.50,ESE,103,11.0,17.0,55,0.00,,,0.00,32767.00,ALWS 1.0-beta,2013-03-25 13:29:00,
2013-03-25 07:34:00,10.6,-2.4,30.49,ESE,106,12.0,17.0,55,0.00,,,0.00,32767.00,ALWS 1.0-beta,2013-03-25 13:34:00,
2013-03-25 07:39:00,10.6,-2.4,30.50,ENE,72,11.0,19.0,55,0.00,,,0.00,32767.00,ALWS 1.0-beta,2013-03-25 13:39:00,
2013-03-25 07:44:00,10.9,-2.1,30.50,East,91,8.0,19.0,55,0.00,,,0.00,32767.00,ALWS 1.0-beta,2013-03-25 13:44:00,
2013-03-25 07:49:00,11.0,-1.6,30.50,ESE,112,10.0,17.0,56,0.00,,,0.00,32767.00,ALWS 1.0-beta,2013-03-25 13:49:00,
2013-03-25 07:54:00,11.2,-1.8,30.50,East,98,9.0,18.0,55,0.00,,,0.00,32767.00,ALWS 1.0-beta,2013-03-25 13:54:00,
2013-03-25 07:59:00,11.4,-1.6,30.50,East,84,13.0,17.0,55,0.00,,,0.00,32767.00,ALWS 1.0-beta,2013-03-25 13:59:00,
2013-03-25 08:04:00,11.4,-1.6,30.50,ESE,102,10.0,16.0,55,0.00,,,0.00,32767.00,ALWS 1.0-beta,2013-03-25 14:04:00,
2013-03-25 08:09:00,11.8,-1.6,30.50,East,95,7.0,18.0,54,0.00,,,0.00,32767.00,ALWS 1.0-beta,2013-03-25 14:09:00,
2013-03-25 08:14:00,12.2,-1.3,30.50,ESE,113,6.0,15.0,54,0.00,,,0.00,32767.00,ALWS 1.0-beta,2013-03-25 14:14:00,
2013-03-25 08:19:00,12.7,-1.2,30.50,ESE,110,16.0,16.0,53,0.00,,,0.00,32767.00,ALWS 1.0-beta,2013-03-25 14:19:00,
2013-03-25 08:24:00,13.3,-1.0,30.50,East,95,7.0,15.0,52,0.00,,,0.00,32767.00,ALWS 1.0-beta,2013-03-25 14:24:00,
2013-03-25 08:29:00,13.6,-0.8,30.50,ESE,105,12.0,15.0,52,0.00,,,0.00,32767.00,ALWS 1.0-beta,2013-03-25 14:29:00,
2013-03-25 08:34:00,14.4,0.4,30.51,ESE,102,4.0,7.0,53,0.00,,,0.00,32767.00,ALWS 1.0-beta,2013-03-25 14:34:00,
2013-03-25 08:39:00,15.2,1.5,30.51,ESE,111,5.0,8.0,54,0.00,,,0.00,32767.00,ALWS 1.0-beta,2013-03-25 14:39:00,
2013-03-25 08:44:00,15.9,1.8,30.51,East,92,5.0,9.0,53,0.00,,,0.00,32767.00,ALWS 1.0-beta,2013-03-25 14:44:00,
2013-03-25 08:49:00,16.4,2.3,30.51,SE,124,5.0,8.0,53,0.00,,,0.00,32767.00,ALWS 1.0-beta,2013-03-25 14:49:00,
2013-03-25 08:54:00,16.7,1.7,30.51,East,90,4.0,7.0,51,0.00,,,0.00,32767.00,ALWS 1.0-beta,2013-03-25 14:54:00,
2013-03-25 08:59:00,17.2,2.2,30.51,East,99,2.0,6.0,51,0.00,,,0.00,32767.00,ALWS 1.0-beta,2013-03-25 14:59:00,
2013-03-25 09:04:00,17.5,2.5,30.51,East,88,2.0,7.0,51,0.00,,,0.00,32767.00,ALWS 1.0-beta,2013-03-25 15:04:00,
2013-03-25 09:09:00,18.0,2.9,30.51,East,89,0.0,3.0,51,0.00,,,0.00,32767.00,ALWS 1.0-beta,2013-03-25 15:09:00,
2013-03-25 09:14:00,18.4,2.9,30.51,East,90,3.0,4.0,50,0.00,,,0.00,32767.00,ALWS 1.0-beta,2013-03-25 15:14:00,
2013-03-25 09:19:00,18.5,3.0,30.51,East,90,0.0,3.0,50,0.00,,,0.00,32767.00,ALWS 1.0-beta,2013-03-25 15:19:00,
2013-03-25 09:24:00,19.7,3.7,30.50,East,90,0.0,0.0,49,0.00,,,0.00,32767.00,ALWS 1.0-beta,2013-03-25 15:24:00,
2013-03-25 09:29:00,20.7,3.7,30.50,East,90,0.0,0.0,47,0.00,,,0.00,32767.00,ALWS 1.0-beta,2013-03-25 15:29:00,
2013-03-25 09:34:00,21.9,3.8,30.50,East,90,0.0,0.0,45,0.00,,,0.00,32767.00,ALWS 1.0-beta,2013-03-25 15:34:00,
2013-03-25 09:39:00,22.1,3.5,30.50,East,90,0.0,2.0,44,0.00,,,0.00,32767.00,ALWS 1.0-beta,2013-03-25 15:39:00,
2013-03-25 09:44:00,22.6,3.0,30.50,East,90,1.0,1.0,42,0.00,,,0.00,32767.00,ALWS 1.0-beta,2013-03-25 15:44:00,
2013-03-25 09:49:00,23.0,3.3,30.50,East,94,0.0,0.0,42,0.00,,,0.00,32767.00,ALWS 1.0-beta,2013-03-25 15:49:00,
2013-03-25 09:54:00,23.3,3.6,30.49,East,93,0.0,0.0,42,0.00,,,0.00,32767.00,ALWS 1.0-beta,2013-03-25 15:54:00,
2013-03-25 09:59:00,23.3,4.1,30.49,East,93,0.0,1.0,43,0.00,,,0.00,32767.00,ALWS 1.0-beta,2013-03-25 15:59:00,
2013-03-25 10:04:00,23.6,3.9,30.49,East,91,0.0,0.0,42,0.00,,,0.00,32767.00,ALWS 1.0-beta,2013-03-25 16:04:00,
2013-03-25 10:09:00,24.2,4.4,30.49,East,91,0.0,0.0,42,0.00,,,0.00,32767.00,ALWS 1.0-beta,2013-03-25 16:09:00,
2013-03-25 10:14:00,25.1,4.7,30.49,East,92,0.0,0.0,41,0.00,,,0.00,32767.00,ALWS 1.0-beta,2013-03-25 16:14:00,
2013-03-25 10:19:00,26.0,5.5,30.49,East,92,0.0,0.0,41,0.00,,,0.00,32767.00,ALWS 1.0-beta,2013-03-25 16:19:00,
2013-03-25 10:24:00,27.1,4.9,30.49,East,92,0.0,1.0,38,0.00,,,0.00,32767.00,ALWS 1.0-beta,2013-03-25 16:24:00,
2013-03-25 10:29:00,28.2,5.3,30.49,ESE,109,2.0,3.0,37,0.00,,,0.00,32767.00,ALWS 1.0-beta,2013-03-25 16:29:00,
2013-03-25 10:34:00,28.4,4.9,30.50,SE,146,0.0,5.0,36,0.00,,,0.00,32767.00,ALWS 1.0-beta,2013-03-25 16:34:00,
2013-03-25 10:39:00,28.8,5.2,30.49,SSE,147,0.0,4.0,36,0.00,,,0.00,32767.00,ALWS 1.0-beta,2013-03-25 16:39:00,
2013-03-25 10:44:00,28.9,5.9,30.50,WSW,237,3.0,3.0,37,0.00,,,0.00,32767.00,ALWS 1.0-beta,2013-03-25 16:44:00,
2013-03-25 10:49:00,29.2,6.2,30.49,SSE,152,3.0,5.0,37,0.00,,,0.00,32767.00,ALWS 1.0-beta,2013-03-25 16:49:00,
2013-03-25 10:54:00,29.7,6.6,30.49,SSE,153,0.0,3.0,37,0.00,,,0.00,32767.00,ALWS 1.0-beta,2013-03-25 16:54:00,
2013-03-25 10:59:00,30.6,6.2,30.49,SSE,159,0.0,0.0,35,0.00,,,0.00,32767.00,ALWS 1.0-beta,2013-03-25 16:59:00,
2013-03-25 11:04:00,30.8,7.0,30.49,SSE,164,0.0,4.0,36,0.00,,,0.00,32767.00,ALWS 1.0-beta,2013-03-25 17:04:00,
2013-03-25 11:09:00,30.7,6.3,30.49,South,171,0.0,5.0,35,0.00,,,0.00,32767.00,ALWS 1.0-beta,2013-03-25 17:09:00,
2013-03-25 11:14:00,30.9,6.5,30.49,ESE,123,0.0,5.0,35,0.00,,,0.00,32767.00,ALWS 1.0-beta,2013-03-25 17:14:00,
2013-03-25 11:19:00,30.6,6.8,30.48,SE,125,0.0,4.0,36,0.00,,,0.00,32767.00,ALWS 1.0-beta,2013-03-25 17:19:00,
2013-03-25 11:24:00,31.1,6.0,30.48,SE,145,0.0,6.0,34,0.00,,,0.00,32767.00,ALWS 1.0-beta,2013-03-25 17:24:00,
2013-03-25 11:29:00,31.6,6.5,30.48,SE,145,0.0,0.0,34,0.00,,,0.00,32767.00,ALWS 1.0-beta,2013-03-25 17:29:00,
2013-03-25 11:34:00,32.5,6.6,30.48,South,188,0.0,5.0,33,0.00,,,0.00,32767.00,ALWS 1.0-beta,2013-03-25 17:34:00,
2013-03-25 11:39:00,32.6,7.3,30.48,South,188,0.0,0.0,34,0.00,,,0.00,32767.00,ALWS 1.0-beta,2013-03-25 17:39:00,
2013-03-25 11:44:00,33.9,9.1,30.47,SE,142,5.0,6.0,35,0.00,,,0.00,32767.00,ALWS 1.0-beta,2013-03-25 17:44:00,
2013-03-25 11:49:00,34.0,9.2,30.47,SW,217,0.0,7.0,35,0.00,,,0.00,32767.00,ALWS 1.0-beta,2013-03-25 17:49:00,
2013-03-25 11:54:00,33.9,10.4,30.47,SSW,195,6.0,7.0,37,0.00,,,0.00,32767.00,ALWS 1.0-beta,2013-03-25 17:54:00,
2013-03-25 11:59:00,34.4,10.8,30.46,SE,129,6.0,10.0,37,0.00,,,0.00,32767.00,ALWS 1.0-beta,2013-03-25 17:59:00,
2013-03-25 12:04:00,34.7,12.3,30.46,SSE,148,3.0,11.0,39,0.00,,,0.00,32767.00,ALWS 1.0-beta,2013-03-25 18:04:00,
2013-03-25 12:09:00,34.9,11.9,30.46,SSE,168,3.0,9.0,38,0.00,,,0.00,32767.00,ALWS 1.0-beta,2013-03-25 18:09:00,
2013-03-25 12:14:00,35.3,12.8,30.46,SW,229,4.0,10.0,39,0.00,,,0.00,32767.00,ALWS 1.0-beta,2013-03-25 18:14:00,
2013-03-25 12:19:00,35.3,11.6,30.45,SSE,166,4.0,9.0,37,0.00,,,0.00,32767.00,ALWS 1.0-beta,2013-03-25 18:19:00,
2013-03-25 12:24:00,34.9,11.9,30.46,SSW,211,7.0,8.0,38,0.00,,,0.00,32767.00,ALWS 1.0-beta,2013-03-25 18:24:00,
2013-03-25 12:29:00,34.8,12.4,30.45,WSW,243,9.0,13.0,39,0.00,,,0.00,32767.00,ALWS 1.0-beta,2013-03-25 18:29:00,
2013-03-25 12:34:00,35.0,13.1,30.45,WSW,258,0.0,7.0,40,0.00,,,0.00,32767.00,ALWS 1.0-beta,2013-03-25 18:34:00,
2013-03-25 12:39:00,35.4,12.3,30.45,SSW,197,5.0,8.0,38,0.00,,,0.00,32767.00,ALWS 1.0-beta,2013-03-25 18:39:00,
2013-03-25 12:44:00,35.9,13.4,30.45,South,171,9.0,12.0,39,0.00,,,0.00,32767.00,ALWS 1.0-beta,2013-03-25 18:44:00,
2013-03-25 12:49:00,36.4,13.2,30.45,SW,214,5.0,9.0,38,0.00,,,0.00,32767.00,ALWS 1.0-beta,2013-03-25 18:49:00,
2013-03-25 12:54:00,37.2,13.3,30.44,SSW,192,7.0,13.0,37,0.00,,,0.00,32767.00,ALWS 1.0-beta,2013-03-25 18:54:00,
2013-03-25 12:59:00,37.0,13.2,30.44,SW,217,10.0,13.0,37,0.00,,,0.00,32767.00,ALWS 1.0-beta,2013-03-25 18:59:00,
2013-03-25 13:04:00,36.7,12.9,30.44,WSW,238,3.0,11.0,37,0.00,,,0.00,32767.00,ALWS 1.0-beta,2013-03-25 19:04:00,
2013-03-25 13:09:00,37.1,13.9,30.44,SSW,205,4.0,6.0,38,0.00,,,0.00,32767.00,ALWS 1.0-beta,2013-03-25 19:09:00,
2013-03-25 13:14:00,37.5,13.6,30.44,WSW,242,13.0,15.0,37,0.00,,,0.00,32767.00,ALWS 1.0-beta,2013-03-25 19:14:00,
2013-03-25 13:19:00,36.6,13.4,30.44,SW,220,3.0,12.0,38,0.00,,,0.00,32767.00,ALWS 1.0-beta,2013-03-25 19:19:00,
2013-03-25 13:24:00,37.1,14.4,30.44,SSW,195,6.0,9.0,39,0.00,,,0.00,32767.00,ALWS 1.0-beta,2013-03-25 19:24:00,
2013-03-25 13:29:00,37.9,14.6,30.43,SE,143,4.0,4.0,38,0.00,,,0.00,32767.00,ALWS 1.0-beta,2013-03-25 19:29:00,
2013-03-25 13:34:00,38.0,14.7,30.43,SW,218,4.0,6.0,38,0.00,,,0.00,32767.00,ALWS 1.0-beta,2013-03-25 19:34:00,
2013-03-25 13:39:00,38.3,14.9,30.43,SSE,160,3.0,7.0,38,0.00,,,0.00,32767.00,ALWS 1.0-beta,2013-03-25 19:39:00,
2013-03-25 13:44:00,38.8,16.0,30.43,SW,225,10.0,14.0,39,0.00,,,0.00,32767.00,ALWS 1.0-beta,2013-03-25 19:44:00,
2013-03-25 13:49:00,38.7,16.5,30.43,WSW,242,7.0,7.0,40,0.00,,,0.00,32767.00,ALWS 1.0-beta,2013-03-25 19:49:00,
2013-03-25 13:54:00,38.9,16.1,30.42,WSW,254,0.0,0.0,39,0.00,,,0.00,32767.00,ALWS 1.0-beta,2013-03-25 19:54:00,
2013-03-25 13:59:00,38.8,15.4,30.42,SSW,201,3.0,10.0,38,0.00,,,0.00,32767.00,ALWS 1.0-beta,2013-03-25 19:59:00,
2013-03-25 14:04:00,38.7,15.3,30.42,SSW,200,0.0,2.0,38,0.00,,,0.00,32767.00,ALWS 1.0-beta,2013-03-25 20:04:00,
2013-03-25 14:09:00,38.3,16.1,30.42,SSW,200,3.0,10.0,40,0.00,,,0.00,32767.00,ALWS 1.0-beta,2013-03-25 20:09:00,
2013-03-25 14:14:00,38.6,15.8,30.41,SW,223,10.0,13.0,39,0.00,,,0.00,32767.00,ALWS 1.0-beta,2013-03-25 20:14:00,
2013-03-25 14:19:00,38.6,17.0,30.41,SW,234,11.0,11.0,41,0.00,,,0.00,32767.00,ALWS 1.0-beta,2013-03-25 20:19:00,
2013-03-25 14:24:00,38.8,16.6,30.41,SW,221,11.0,11.0,40,0.00,,,0.00,32767.00,ALWS 1.0-beta,2013-03-25 20:24:00,
2013-03-25 14:29:00,39.0,16.2,30.40,SSE,148,0.0,9.0,39,0.00,,,0.00,32767.00,ALWS 1.0-beta,2013-03-25 20:29:00,
2013-03-25 14:34:00,39.4,16.5,30.40,SSE,161,4.0,5.0,39,0.00,,,0.00,32767.00,ALWS 1.0-beta,2013-03-25 20:34:00,
2013-03-25 14:39:00,40.1,17.1,30.40,SSW,194,7.0,13.0,39,0.00,,,0.00,32767.00,ALWS 1.0-beta,2013-03-25 20:39:00,
2013-03-25 14:44:00,39.5,16.6,30.40,SW,223,9.0,15.0,39,0.00,,,0.00,32767.00,ALWS 1.0-beta,2013-03-25 20:44:00,
2013-03-25 14:49:00,39.4,16.5,30.39,WSW,238,3.0,11.0,39,0.00,,,0.00,32767.00,ALWS 1.0-beta,2013-03-25 20:49:00,
2013-03-25 14:54:00,39.6,17.3,30.39,South,191,1.0,10.0,40,0.00,,,0.00,32767.00,ALWS 1.0-beta,2013-03-25 20:54:00,
2013-03-25 14:59:00,39.6,16.1,30.39,South,178,0.0,12.0,38,0.00,,,0.00,32767.00,ALWS 1.0-beta,2013-03-25 20:59:00,
2013-03-25 15:04:00,40.3,17.3,30.39,South,176,4.0,6.0,39,0.00,,,0.00,32767.00,ALWS 1.0-beta,2013-03-25 21:04:00,
2013-03-25 15:09:00,40.6,17.6,30.38,SSE,150,4.0,7.0,39,0.00,,,0.00,32767.00,ALWS 1.0-beta,2013-03-25 21:09:00,
2013-03-25 15:14:00,41.1,17.4,30.38,SE,134,5.0,6.0,38,0.00,,,0.00,32767.00,ALWS 1.0-beta,2013-03-25 21:14:00,
2013-03-25 15:19:00,41.5,18.4,30.37,SE,141,2.0,6.0,39,0.00,,,0.00,32767.00,ALWS 1.0-beta,2013-03-25 21:19:00,
2013-03-25 15:24:00,42.1,17.7,30.37,WSW,241,2.0,8.0,37,0.00,,,0.00,32767.00,ALWS 1.0-beta,2013-03-25 21:24:00,
2013-03-25 15:29:00,42.1,17.7,30.37,WNW,300,0.0,4.0,37,0.00,,,0.00,32767.00,ALWS 1.0-beta,2013-03-25 21:29:00,
2013-03-25 15:34:00,42.4,18.6,30.37,West,281,0.0,5.0,38,0.00,,,0.00,32767.00,ALWS 1.0-beta,2013-03-25 21:34:00,
2013-03-25 15:39:00,43.1,18.0,30.37,NW,319,3.0,7.0,36,0.00,,,0.00,32767.00,ALWS 1.0-beta,2013-03-25 21:39:00,
2013-03-25 15:44:00,41.9,17.5,30.36,WSW,255,5.0,11.0,37,0.00,,,0.00,32767.00,ALWS 1.0-beta,2013-03-25 21:44:00,
2013-03-25 15:49:00,41.5,18.4,30.36,WNW,288,5.0,13.0,39,0.00,,,0.00,32767.00,ALWS 1.0-beta,2013-03-25 21:49:00,
2013-03-25 15:54:00,41.6,18.5,30.36,WNW,283,7.0,9.0,39,0.00,,,0.00,32767.00,ALWS 1.0-beta,2013-03-25 21:54:00,
2013-03-25 15:59:00,42.0,18.2,30.36,West,267,0.0,4.0,38,0.00,,,0.00,32767.00,ALWS 1.0-beta,2013-03-25 21:59:00,
2013-03-25 16:04:00,41.5,17.8,30.36,SSW,211,3.0,6.0,38,0.00,,,0.00,32767.00,ALWS 1.0-beta,2013-03-25 22:04:00,
2013-03-25 16:09:00,41.1,17.4,30.36,SSW,210,0.0,4.0,38,0.00,,,0.00,32767.00,ALWS 1.0-beta,2013-03-25 22:09:00,
2013-03-25 16:14:00,40.9,17.9,30.36,SSW,207,0.0,2.0,39,0.00,,,0.00,32767.00,ALWS 1.0-beta,2013-03-25 22:14:00,
2013-03-25 16:19:00,41.3,18.2,30.36,SSW,207,0.0,1.0,39,0.00,,,0.00,32767.00,ALWS 1.0-beta,2013-03-25 22:19:00,
2013-03-25 16:24:00,41.1,18.0,30.36,SSW,207,0.0,1.0,39,0.00,,,0.00,32767.00,ALWS 1.0-beta,2013-03-25 22:24:00,
2013-03-25 16:29:00,40.6,17.6,30.36,SSW,207,0.0,4.0,39,0.00,,,0.00,32767.00,ALWS 1.0-beta,2013-03-25 22:29:00,
2013-03-25 16:34:00,40.6,17.6,30.35,SSW,207,0.0,3.0,39,0.00,,,0.00,32767.00,ALWS 1.0-beta,2013-03-25 22:34:00,
2013-03-25 16:39:00,40.8,17.8,30.35,SSW,207,0.0,1.0,39,0.00,,,0.00,32767.00,ALWS 1.0-beta,2013-03-25 22:39:00,
2013-03-25 16:44:00,41.1,18.0,30.35,SSW,207,0.0,0.0,39,0.00,,,0.00,32767.00,ALWS 1.0-beta,2013-03-25 22:44:00,
2013-03-25 16:49:00,41.1,17.4,30.35,SSW,195,3.0,5.0,38,0.00,,,0.00,32767.00,ALWS 1.0-beta,2013-03-25 22:49:00,
2013-03-25 16:54:00,41.1,18.0,30.35,SSE,168,0.0,5.0,39,0.00,,,0.00,32767.00,ALWS 1.0-beta,2013-03-25 22:54:00,
2013-03-25 16:59:00,41.7,18.0,30.35,SSE,168,0.0,3.0,38,0.00,,,0.00,32767.00,ALWS 1.0-beta,2013-03-25 22:59:00,
2013-03-25 17:04:00,42.1,17.7,30.34,SSE,168,0.0,0.0,37,0.00,,,0.00,32767.00,ALWS 1.0-beta,2013-03-25 23:04:00,
2013-03-25 17:09:00,42.1,18.3,30.34,SE,127,4.0,5.0,38,0.00,,,0.00,32767.00,ALWS 1.0-beta,2013-03-25 23:09:00,
2013-03-25 17:14:00,41.7,18.0,30.34,SE,127,0.0,4.0,38,0.00,,,0.00,32767.00,ALWS 1.0-beta,2013-03-25 23:14:00,
2013-03-25 17:19:00,41.5,18.4,30.34,South,180,3.0,6.0,39,0.00,,,0.00,32767.00,ALWS 1.0-beta,2013-03-25 23:19:00,
2013-03-25 17:24:00,41.5,18.4,30.34,South,180,0.0,3.0,39,0.00,,,0.00,32767.00,ALWS 1.0-beta,2013-03-25 23:24:00,
2013-03-25 17:29:00,41.4,18.3,30.34,SSE,153,0.0,5.0,39,0.00,,,0.00,32767.00,ALWS 1.0-beta,2013-03-25 23:29:00,
2013-03-25 17:34:00,41.8,18.7,30.34,SSE,165,4.0,5.0,39,0.00,,,0.00,32767.00,ALWS 1.0-beta,2013-03-25 23:34:00,
2013-03-25 17:39:00,42.0,18.2,30.34,SSE,165,0.0,4.0,38,0.00,,,0.00,32767.00,ALWS 1.0-beta,2013-03-25 23:39:00,
2013-03-25 17:44:00,42.1,19.0,30.33,SSE,167,0.0,1.0,39,0.00,,,0.00,32767.00,ALWS 1.0-beta,2013-03-25 23:44:00,
2013-03-25 17:49:00,42.6,19.4,30.33,SSE,167,0.0,0.0,39,0.00,,,0.00,32767.00,ALWS 1.0-beta,2013-03-25 23:49:00,
2013-03-25 17:54:00,43.1,19.2,30.33,SSE,167,0.0,0.0,38,0.00,,,0.00,32767.00,ALWS 1.0-beta,2013-03-25 23:54:00,
2013-03-25 17:59:00,43.4,18.9,30.33,SSE,166,1.0,3.0,37,0.00,,,0.00,32767.00,ALWS 1.0-beta,2013-03-25 23:59:00,
2013-03-25 18:04:00,43.2,18.7,30.33,SSE,167,0.0,2.0,37,0.00,,,0.00,32767.00,ALWS 1.0-beta,2013-03-26 00:04:00,
2013-03-25 18:09:00,42.7,19.5,30.33,SW,234,2.0,5.0,39,0.00,,,0.00,32767.00,ALWS 1.0-beta,2013-03-26 00:09:00,
2013-03-25 18:14:00,42.0,18.9,30.32,SW,234,0.0,0.0,39,0.00,,,0.00,32767.00,ALWS 1.0-beta,2013-03-26 00:14:00,
2013-03-25 18:19:00,41.8,18.7,30.32,SW,234,0.0,0.0,39,0.00,,,0.00,32767.00,ALWS 1.0-beta,2013-03-26 00:19:00,
2013-03-25 18:24:00,41.7,18.6,30.32,SW,234,0.0,0.0,39,0.00,,,0.00,32767.00,ALWS 1.0-beta,2013-03-26 00:24:00,
2013-03-25 18:29:00,42.1,19.5,30.32,SW,234,0.0,0.0,40,0.00,,,0.00,32767.00,ALWS 1.0-beta,2013-03-26 00:29:00,
2013-03-25 18:34:00,42.5,18.7,30.31,SW,234,0.0,0.0,38,0.00,,,0.00,32767.00,ALWS 1.0-beta,2013-03-26 00:34:00,
2013-03-25 18:39:00,41.9,18.8,30.31,SW,234,0.0,0.0,39,0.00,,,0.00,32767.00,ALWS 1.0-beta,2013-03-26 00:39:00,
2013-03-25 18:44:00,41.8,19.3,30.31,SW,234,0.0,1.0,40,0.00,,,0.00,32767.00,ALWS 1.0-beta,2013-03-26 00:44:00,
2013-03-25 18:49:00,41.8,19.8,30.31,SW,234,0.0,1.0,41,0.00,,,0.00,32767.00,ALWS 1.0-beta,2013-03-26 00:49:00,
2013-03-25 18:54:00,41.5,19.6,30.31,SW,234,0.0,2.0,41,0.00,,,0.00,32767.00,ALWS 1.0-beta,2013-03-26 00:54:00,
2013-03-25 18:59:00,41.0,19.7,30.31,SW,234,0.0,3.0,42,0.00,,,0.00,32767.00,ALWS 1.0-beta,2013-03-26 00:59:00,
2013-03-25 19:04:00,40.6,19.3,30.31,SW,234,0.0,1.0,42,0.00,,,0.00,32767.00,ALWS 1.0-beta,2013-03-26 01:04:00,
2013-03-25 19:09:00,40.4,19.1,30.31,SW,234,0.0,1.0,42,0.00,,,0.00,32767.00,ALWS 1.0-beta,2013-03-26 01:09:00,
2013-03-25 19:14:00,40.1,19.4,30.31,SW,234,0.0,1.0,43,0.00,,,0.00,32767.00,ALWS 1.0-beta,2013-03-26 01:14:00,
2013-03-25 19:19:00,39.8,19.7,30.31,SW,234,0.0,3.0,44,0.00,,,0.00,32767.00,ALWS 1.0-beta,2013-03-26 01:19:00,
2013-03-25 19:24:00,39.6,19.5,30.31,SW,234,0.0,0.0,44,0.00,,,0.00,32767.00,ALWS 1.0-beta,2013-03-26 01:24:00,
2013-03-25 19:29:00,39.5,19.4,30.31,SW,234,1.0,3.0,44,0.00,,,0.00,32767.00,ALWS 1.0-beta,2013-03-26 01:29:00,
2013-03-25 19:34:00,39.4,19.3,30.31,SW,234,2.0,3.0,44,0.00,,,0.00,32767.00,ALWS 1.0-beta,2013-03-26 01:34:00,
2013-03-25 19:39:00,39.2,20.2,30.31,SW,234,1.0,3.0,46,0.00,,,0.00,32767.00,ALWS 1.0-beta,2013-03-26 01:39:00,
2013-03-25 19:44:00,39.0,20.0,30.31,SW,234,0.0,2.0,46,0.00,,,0.00,32767.00,ALWS 1.0-beta,2013-03-26 01:44:00,
2013-03-25 19:49:00,38.8,19.8,30.31,SW,234,0.0,2.0,46,0.00,,,0.00,32767.00,ALWS 1.0-beta,2013-03-26 01:49:00,
2013-03-25 19:54:00,38.8,19.8,30.31,SW,234,2.0,3.0,46,0.00,,,0.00,32767.00,ALWS 1.0-beta,2013-03-26 01:54:00,
2013-03-25 19:59:00,38.8,19.8,30.31,SW,234,0.0,0.0,46,0.00,,,0.00,32767.00,ALWS 1.0-beta,2013-03-26 01:59:00,
2013-03-25 20:04:00,38.0,20.1,30.31,SSW,198,3.0,6.0,48,0.00,,,0.00,32767.00,ALWS 1.0-beta,2013-03-26 02:04:00,
2013-03-25 20:09:00,38.0,19.6,30.31,SSW,198,4.0,5.0,47,0.00,,,0.00,32767.00,ALWS 1.0-beta,2013-03-26 02:09:00,
2013-03-25 20:14:00,38.1,20.2,30.31,SSW,198,0.0,3.0,48,0.00,,,0.00,32767.00,ALWS 1.0-beta,2013-03-26 02:14:00,
2013-03-25 20:19:00,37.8,19.9,30.31,SSW,196,3.0,3.0,48,0.00,,,0.00,32767.00,ALWS 1.0-beta,2013-03-26 02:19:00,
2013-03-25 20:24:00,37.6,20.2,30.31,South,179,6.0,6.0,49,0.00,,,0.00,32767.00,ALWS 1.0-beta,2013-03-26 02:24:00,
2013-03-25 20:29:00,37.7,20.3,30.31,South,171,0.0,8.0,49,0.00,,,0.00,32767.00,ALWS 1.0-beta,2013-03-26 02:29:00,
2013-03-25 20:34:00,37.6,20.2,30.31,South,170,6.0,7.0,49,0.00,,,0.00,32767.00,ALWS 1.0-beta,2013-03-26 02:34:00,
2013-03-25 20:39:00,37.8,20.4,30.31,South,173,7.0,9.0,49,0.00,,,0.00,32767.00,ALWS 1.0-beta,2013-03-26 02:39:00,
2013-03-25 20:44:00,37.8,20.4,30.30,South,173,2.0,8.0,49,0.00,,,0.00,32767.00,ALWS 1.0-beta,2013-03-26 02:44:00,
2013-03-25 20:49:00,38.0,20.5,30.30,South,179,5.0,6.0,49,0.00,,,0.00,32767.00,ALWS 1.0-beta,2013-03-26 02:49:00,
2013-03-25 20:54:00,38.0,20.5,30.30,SSE,167,6.0,10.0,49,0.00,,,0.00,32767.00,ALWS 1.0-beta,2013-03-26 02:54:00,
2013-03-25 20:59:00,38.1,20.6,30.30,South,171,5.0,9.0,49,0.00,,,0.00,32767.00,ALWS 1.0-beta,2013-03-26 02:59:00,
2013-03-25 21:04:00,38.0,20.5,30.30,SSE,165,3.0,10.0,49,0.00,,,0.00,32767.00,ALWS 1.0-beta,2013-03-26 03:04:00,
2013-03-25 21:09:00,38.0,20.5,30.30,South,173,3.0,7.0,49,0.00,,,0.00,32767.00,ALWS 1.0-beta,2013-03-26 03:09:00,
2013-03-25 21:14:00,37.9,20.5,30.30,South,171,3.0,5.0,49,0.00,,,0.00,32767.00,ALWS 1.0-beta,2013-03-26 03:14:00,
2013-03-25 21:19:00,37.8,20.4,30.30,South,171,2.0,5.0,49,0.00,,,0.00,32767.00,ALWS 1.0-beta,2013-03-26 03:19:00,
2013-03-25 21:24:00,37.8,20.4,30.30,South,171,3.0,4.0,49,0.00,,,0.00,32767.00,ALWS 1.0-beta,2013-03-26 03:24:00,
2013-03-25 21:29:00,37.8,20.4,30.30,South,171,0.0,6.0,49,0.00,,,0.00,32767.00,ALWS 1.0-beta,2013-03-26 03:29:00,
2013-03-25 21:34:00,37.7,20.3,30.30,South,171,0.0,2.0,49,0.00,,,0.00,32767.00,ALWS 1.0-beta,2013-03-26 03:34:00,
2013-03-25 21:39:00,37.7,20.3,30.30,South,171,0.0,0.0,49,0.00,,,0.00,32767.00,ALWS 1.0-beta,2013-03-26 03:39:00,
2013-03-25 21:44:00,37.4,20.5,30.30,South,171,0.0,1.0,50,0.00,,,0.00,32767.00,ALWS 1.0-beta,2013-03-26 03:44:00,
2013-03-25 21:49:00,37.0,20.6,30.30,South,171,0.0,0.0,51,0.00,,,0.00,32767.00,ALWS 1.0-beta,2013-03-26 03:49:00,
2013-03-25 21:54:00,36.9,20.5,30.30,South,171,0.0,1.0,51,0.00,,,0.00,32767.00,ALWS 1.0-beta,2013-03-26 03:54:00,
2013-03-25 21:59:00,37.0,20.6,30.30,South,171,0.0,0.0,51,0.00,,,0.00,32767.00,ALWS 1.0-beta,2013-03-26 03:59:00,
2013-03-25 22:00:00,36.9,20.5,30.30,South,171,0.0,0.0,51,0.00,,,0.00,32767.00,ALWS 1.0-beta,2013-03-26 04:00:00,
2013-03-25 22:05:00,36.9,20.0,30.29,South,171,0.0,0.0,50,0.00,,,0.00,32767.00,ALWS 1.0-beta,2013-03-26 04:05:00,
2013-03-25 22:10:00,36.9,20.0,30.29,South,171,0.0,0.0,50,0.00,,,0.00,32767.00,ALWS 1.0-beta,2013-03-26 04:10:00,
2013-03-25 22:15:00,36.8,20.4,30.29,South,171,2.0,2.0,51,0.00,,,0.00,32767.00,ALWS 1.0-beta,2013-03-26 04:15:00,
2013-03-25 22:20:00,36.6,20.2,30.29,South,171,0.0,2.0,51,0.00,,,0.00,32767.00,ALWS 1.0-beta,2013-03-26 04:20:00,
2013-03-25 22:25:00,36.3,20.8,30.29,South,171,0.0,0.0,53,0.00,,,0.00,32767.00,ALWS 1.0-beta,2013-03-26 04:25:00,
2013-03-25 22:30:00,35.1,20.6,30.29,SSW,200,2.0,5.0,55,0.00,,,0.00,32767.00,ALWS 1.0-beta,2013-03-26 04:30:00,
2013-03-25 22:35:00,34.4,20.8,30.29,SSW,200,0.0,2.0,57,0.00,,,0.00,32767.00,ALWS 1.0-beta,2013-03-26 04:35:00,
2013-03-25 22:40:00,34.2,20.6,30.29,SSW,200,0.0,0.0,57,0.00,,,0.00,32767.00,ALWS 1.0-beta,2013-03-26 04:40:00,
2013-03-25 22:45:00,34.4,20.3,30.29,SSW,200,0.0,0.0,56,0.00,,,0.00,32767.00,ALWS 1.0-beta,2013-03-26 04:45:00,
2013-03-25 22:50:00,34.4,20.3,30.29,SSW,200,0.0,1.0,56,0.00,,,0.00,32767.00,ALWS 1.0-beta,2013-03-26 04:50:00,
2013-03-25 22:55:00,34.1,20.5,30.29,SSW,201,0.0,0.0,57,0.00,,,0.00,32767.00,ALWS 1.0-beta,2013-03-26 04:55:00,
2013-03-25 23:00:00,33.6,20.4,30.29,SSW,200,0.0,0.0,58,0.00,,,0.00,32767.00,ALWS 1.0-beta,2013-03-26 05:00:00,
2013-03-25 23:05:00,33.4,20.2,30.28,SSW,200,0.0,0.0,58,0.00,,,0.00,32767.00,ALWS 1.0-beta,2013-03-26 05:05:00,
2013-03-25 23:10:00,33.4,20.2,30.29,South,188,0.0,0.0,58,0.00,,,0.00,32767.00,ALWS 1.0-beta,2013-03-26 05:10:00,
2013-03-25 23:15:00,32.6,19.9,30.29,SE,125,0.0,4.0,59,0.00,,,0.00,32767.00,ALWS 1.0-beta,2013-03-26 05:15:00,
2013-03-25 23:20:00,32.5,20.2,30.28,SE,125,0.0,3.0,60,0.00,,,0.00,32767.00,ALWS 1.0-beta,2013-03-26 05:20:00,
2013-03-25 23:25:00,32.6,20.3,30.28,SE,125,0.0,0.0,60,0.00,,,0.00,32767.00,ALWS 1.0-beta,2013-03-26 05:25:00,
2013-03-25 23:30:00,33.2,20.4,30.28,East,92,0.0,5.0,59,0.00,,,0.00,32767.00,ALWS 1.0-beta,2013-03-26 05:30:00,
2013-03-25 23:35:00,33.0,19.9,30.28,East,92,0.0,0.0,58,0.00,,,0.00,32767.00,ALWS 1.0-beta,2013-03-26 05:35:00,
2013-03-25 23:40:00,32.9,19.8,30.28,East,92,0.0,0.0,58,0.00,,,0.00,32767.00,ALWS 1.0-beta,2013-03-26 05:40:00,
2013-03-25 23:45:00,32.8,19.7,30.28,East,92,0.0,0.0,58,0.00,,,0.00,32767.00,ALWS 1.0-beta,2013-03-26 05:45:00,
2013-03-25 23:50:00,33.3,19.7,30.28,East,92,0.0,0.0,57,0.00,,,0.00,32767.00,ALWS 1.0-beta,2013-03-26 05:50:00,
2013-03-25 23:55:00,33.3,19.7,30.28,East,92,0.0,1.0,57,0.00,,,0.00,32767.00,ALWS 1.0-beta,2013-03-26 05:55:00,